Shelton, WA
on Thursday, November 29, 2012

Thursday
Previous Day Next Day
Daily Summary
 ActualAverage (KOLM)Record (KOLM)
Temperature
Mean Temperature °F 40°F  
Max Temperature 52°F 47°F 56°F (1953)
Min Temperature 39°F 34°F 14°F (1975)
Degree Days
Heating Degree Days 20 25  
Month to date heating degree days 626  
Since 1 July heating degree days 1420  
Cooling Degree Days 0 0  
Month to date cooling degree days 0  
Year to date cooling degree days 106  
Moisture
Dew Point 44°F   
Average Humidity 92    
Maximum Humidity 100    
Minimum Humidity 74    
Precipitation
Precipitation 0.14 in 0.30 in 2.37 in (1995)
Month to date precipitation 8.33  
Year to date precipitation 42.24  
Wind
Wind Speed 2 mph   
Max Wind Speed 10 mph   
Max Gust Speed 17 mph   
Visibility 9 miles   
Events Rain   

Key: T is trace of precipitation, MM is missing value
Source: NWS Daily Summary
Time(PST)TemperatureDew PointHumidity Pressure Visibility Wind DirectionWind SpeedGust SpeedPrecipitationEvents Conditions
12:05 AM 39.2°F 39.2°F 100% 29.68 in 2.0 miles Calm Calm - N/A   Overcast
12:14 AM 39.2°F 39.2°F 100% 29.67 in 1.8 miles Calm Calm - N/A   Overcast
12:22 AM 39.2°F 39.2°F 100% 29.67 in 3.0 miles Calm Calm - N/A   Overcast
12:35 AM 39.2°F 39.2°F 100% 29.67 in 6.0 miles Calm Calm - N/A   Overcast
12:53 AM 39.9°F 39.9°F 100% 29.67 in 8.0 miles Calm Calm - N/A   Overcast
1:30 AM 39.2°F 39.2°F 100% 29.65 in 10.0 miles Calm Calm - N/A   Overcast
1:53 AM 39.9°F 39.9°F 100% 29.66 in 10.0 miles Calm Calm - N/A   Overcast
2:53 AM 41.0°F 41.0°F 100% 29.64 in 10.0 miles Calm Calm - 0.00 in   Overcast
3:53 AM 42.1°F 42.1°F 100% 29.61 in 10.0 miles Calm Calm - 0.00 in   Overcast
4:53 AM 42.1°F 42.1°F 100% 29.56 in 9.0 miles Calm Calm - 0.00 in Rain Light Rain
5:53 AM 43.0°F 43.0°F 100% 29.54 in 10.0 miles Variable 3.5 mph - 0.01 in Rain Light Rain
6:53 AM 46.0°F 45.0°F 96% 29.52 in 10.0 miles NNE 5.8 mph - 0.02 in Rain Light Rain
7:53 AM 46.4°F 44.6°F 93% 29.51 in 10.0 miles WNW 3.5 mph - N/A Rain Light Rain
8:53 AM 45.0°F 45.0°F 100% 29.56 in 10.0 miles Calm Calm - 0.04 in Rain Light Rain
9:53 AM 48.9°F 46.0°F 90% 29.58 in 10.0 miles SSE 9.2 mph - 0.02 in Rain Light Rain
10:53 AM 50.0°F 46.9°F 89% 29.57 in 10.0 miles SSE 4.6 mph - 0.01 in Rain Light Rain
11:53 AM 50.0°F 46.0°F 86% 29.58 in 10.0 miles SE 10.4 mph - 0.00 in   Overcast
12:53 PM 50.0°F 46.0°F 86% 29.56 in 10.0 miles SSE 9.2 mph 17.3 mph 0.00 in   Overcast
1:53 PM 51.1°F 46.9°F 86% 29.56 in 10.0 miles Calm Calm - 0.00 in   Overcast
2:53 PM 50.0°F 48.0°F 93% 29.55 in 10.0 miles Calm Calm - 0.00 in   Overcast
3:53 PM 52.0°F 45.0°F 77% 29.54 in 10.0 miles SSE 5.8 mph - N/A   Overcast
4:53 PM 51.1°F 45.0°F 80% 29.52 in 10.0 miles SSE 4.6 mph - N/A   Overcast
5:53 PM 51.1°F 44.1°F 77% 29.51 in 10.0 miles SSE 4.6 mph - 0.00 in   Overcast
6:53 PM 52.0°F 44.1°F 74% 29.49 in 10.0 miles SSE 9.2 mph - 0.00 in Rain Light Rain
7:53 PM 51.1°F 43.0°F 74% 29.48 in 10.0 miles SE 4.6 mph - 0.00 in   Overcast
8:53 PM 50.0°F 45.0°F 83% 29.48 in 10.0 miles SE 8.1 mph - N/A   Overcast
9:53 PM 46.9°F 46.0°F 97% 29.46 in 10.0 miles Calm Calm - 0.01 in   Mostly Cloudy
10:53 PM 46.9°F 46.0°F 97% 29.44 in 10.0 miles NE 4.6 mph - 0.00 in Rain Light Rain
11:53 PM 46.9°F 46.0°F 97% 29.43 in 10.0 miles Calm Calm - 0.03 in Rain Light Rain
Moon Phase
Nov. 29 Dec. 06 Dec. 13 Dec. 20 Dec. 28
Sunrise:07:36 AM (PST) Moon Rise:05:32 PM (PST)
Sunset:04:25 PM (PST) Moon Set:08:28 AM (PST)

Copyright © 2014 The Weather Underground, Inc.